Grand Junction, CO

6:58 AM MDT on July 26, 2017 (GMT -0600)
Walker

Weather History for KGJT - October, 2010

Change the Weather History Date:

Saturday, October 9, 2010

  Actual Average Record
Temperature  
Mean Temperature 55 °F 56 °F  
Max Temperature 68 °F 69 °F 83 °F (1996)
Min Temperature 41 °F 43 °F 30 °F (1909)
Degree Days  
Heating Degree Days 10 9  
Month to date heating degree days 25 69  
Since 1 July heating degree days 37 143  
Cooling Degree Days 0 0  
Month to date cooling degree days 12 1  
Year to date cooling degree days 1277 1123  
Growing Degree Days 4 (Base 50)    
Moisture  
Dew Point 33 °F    
Average Humidity 48    
Maximum Humidity 67    
Minimum Humidity 28    
Precipitation  
Precipitation 0.00 in 0.03 in 0.56 in (1897)
Month to date precipitation 0.16 0.33  
Year to date precipitation 6.34 7.37  
Snow  
Snow 0.00 in 0.00 in 0.00 in (2015)
Month to date snowfall 0.0 0.0  
Since 1 July snowfall 0.0 0.0  
Since 1 September snowfall 0.0 0.0  
Snow Depth 0.00 in    
Sea Level Pressure  
Sea Level Pressure 30.19 in    
Wind  
Wind Speed 6 mph (East)    
Max Wind Speed 15 mph    
Max Gust Speed 18 mph    
Visibility 10 miles    
Events      
T = Trace of Precipitation, MM = Missing Value Source: NWS Daily Summary

Daily Weather History Graph

Daily Weather History Graph

Search for Another Location

Airport or City:

Trip Planner

Search our weather history database for the weather conditions in past years. The results will help you decide how hot, cold, wet, or windy it might be!

Date:

Astronomy

Oct. 09, 2010 Rise Set
Actual Time 7:17 AM MDT 6:44 PM MDT
Civil Twilight 6:51 AM MDT 7:10 PM MDT
Nautical Twilight 6:20 AM MDT 7:41 PM MDT
Astronomical Twilight 5:49 AM MDT 8:12 PM MDT
Moon 9:40 AM MDT (10/9) 7:44 PM MDT (10/9)
Length of Visible Light 12h 19m
Length of Day
11h 26m
Waxing Crescent, 5% of the Moon is Illuminated
Oct 9
Waxing Crescent
Oct 14
First Quarter
Oct 22
Full
Oct 30
Last Quarter
Nov 5
New

Hourly Weather History & Observations

Time (MDT) Temp. Windchill Dew Point Humidity Pressure Visibility Wind Dir Wind Speed Gust Speed Precip Events Conditions
12:53 AM 46.0 °F 42.5 °F 30.9 °F 56% 30.16 in 10.0 mi East 6.9 mph - N/A   Clear
1:53 AM 48.9 °F - 30.9 °F 50% 30.16 in 10.0 mi East 3.5 mph - N/A   Clear
2:53 AM 45.0 °F 41.8 °F 32.0 °F 60% 30.19 in 10.0 mi East 5.8 mph - N/A   Clear
3:53 AM 45.0 °F 42.6 °F 32.0 °F 60% 30.19 in 10.0 mi East 4.6 mph - N/A   Clear
4:53 AM 42.1 °F 36.1 °F 30.9 °F 65% 30.20 in 10.0 mi ESE 10.4 mph - N/A   Clear
5:53 AM 44.1 °F 37.7 °F 30.9 °F 60% 30.20 in 10.0 mi ESE 12.7 mph - N/A   Clear
6:53 AM 43.0 °F 37.7 °F 30.9 °F 62% 30.23 in 10.0 mi ESE 9.2 mph - N/A   Clear
7:53 AM 43.0 °F 41.3 °F 32.0 °F 65% 30.27 in 10.0 mi East 3.5 mph - N/A   Clear
8:53 AM 46.9 °F - 33.1 °F 59% 30.27 in 10.0 mi SE 5.8 mph - N/A   Clear
9:53 AM 53.1 °F - 34.0 °F 48% 30.27 in 10.0 mi SE 6.9 mph - N/A   Clear
10:53 AM 57.9 °F - 34.0 °F 41% 30.23 in 10.0 mi SE 8.1 mph - N/A   Clear
11:53 AM 59.0 °F - 33.1 °F 38% 30.23 in 10.0 mi Calm Calm - N/A   Clear
12:53 PM 62.1 °F - 35.1 °F 37% 30.21 in 10.0 mi WNW 6.9 mph - N/A   Clear
1:53 PM 64.9 °F - 34.0 °F 32% 30.16 in 10.0 mi WNW 5.8 mph - N/A   Clear
2:53 PM 66.9 °F - 32.0 °F 27% 30.14 in 10.0 mi West 8.1 mph - N/A   Clear
3:53 PM 64.0 °F - 30.9 °F 29% 30.14 in 10.0 mi WNW 9.2 mph - N/A   Overcast
4:53 PM 64.9 °F - 30.9 °F 28% 30.15 in 10.0 mi NW 10.4 mph - N/A   Overcast
5:53 PM 64.9 °F - 32.0 °F 29% 30.14 in 10.0 mi NW 9.2 mph - N/A   Overcast
6:53 PM 62.1 °F - 33.1 °F 34% 30.16 in 10.0 mi NNW 4.6 mph - N/A   Overcast
7:53 PM 61.0 °F - 34.0 °F 36% 30.17 in 10.0 mi ENE 10.4 mph - N/A   Overcast
8:53 PM 60.1 °F - 35.1 °F 39% 30.18 in 10.0 mi NE 11.5 mph - N/A   Overcast
9:53 PM 59.0 °F - 35.1 °F 41% 30.17 in 10.0 mi SSW 3.5 mph - N/A   Overcast
10:53 PM 57.9 °F - 36.0 °F 44% 30.17 in 10.0 mi Calm Calm - N/A   Overcast
11:53 PM 54.0 °F - 34.0 °F 47% 30.17 in 10.0 mi Calm Calm - N/A   Partly Cloudy